Regional Weather Roundup
Issued by NWS Cleveland, OH

Home | Current Version | Previous Version | Graphics & Text | Print | Product List | Glossary On
Versions: 1 2 3 4 5 6 7 8 9 10 11 12 13 14 15 16 17 18 19 20 21 22 23 24 25 26 27 28 29 30 31 32 33 34 35 36 37 38 39 40 41 42 43 44 45 46 47 48 49 50
000
ASUS41 KCLE 252100
RWRCLE
OHIO REGIONAL WEATHER ROUNDUP
NATIONAL WEATHER SERVICE WILMINGTON, OH
500 PM EDT WED MAY 25 2016

NOTE: "FAIR" INDICATES FEW OR NO CLOUDS BELOW 12,000 FEET WITH NO
SIGNIFICANT WEATHER AND/OR OBSTRUCTIONS TO VISIBILITY.

OHZ001>008-015>018-024>027-034-035-043-044-252200-
   NORTHWEST OHIO

CITY           SKY/WX    TMP DP  RH WIND       PRES   REMARKS
DEFIANCE       FAIR      83  57  41 S13G20    30.01F
FINDLAY        FAIR      81  57  43 SE12      30.04F
TOLEDO EXPRESS FAIR      81  57  43 S10       30.03F
TOLEDO EXEC    PTSUNNY   80  58  46 S8        30.05F
LIMA           FAIR      82  58  43 S14G24    30.04F
$$

OHZ009>014-019>023-028>033-038-089-252200-
   NORTHEAST OHIO

CITY           SKY/WX    TMP DP  RH WIND       PRES   REMARKS
CLE-HOPKINS    PTSUNNY   82  56  40 S9        30.09F
CLE-LAKEFRONT  FAIR      77  58  51 VRB3      30.05F
CUY CO. ARPT   PTSUNNY   86  55  35 W8        30.08F
LORAIN-ELYRIA  CLOUDY    80  55  42 SW10      30.07F
ASHTABULA      FAIR      83  52  34 CALM      30.09S
AKRON-CANTON   PTSUNNY   81  54  39 SW13G20   30.11F
WOOSTER        NOT AVBL
MANSFIELD      FAIR      80  56  43 S17       30.11F
YOUNGSTOWN     FAIR      82  47  29 SW14G20   30.11F
$$

OHZ042-051>053-060>062-070>072-077>081-252200-
  SOUTHWEST OHIO

CITY           SKY/WX    TMP DP  RH WIND       PRES   REMARKS
CINC-COVINGTON PTSUNNY   81  62  52 S10G20    30.07F
CINC-LUNKEN    FAIR      80  65  59 SW5       30.07F
HAMILTON       FAIR      83  62  49 SW12G22   30.07F
DAYTON         NOT AVBL
WRIGHT-PAT AFB NOT AVBL
DAYTON GENERAL FAIR      80  60  50 S16       30.07F
WILMINGTON     FAIR      80  62  54 S10       30.09F
$$

OHZ036-037-039>041-045>050-054>059-063>069-073>076-082>088-252200-
  CENTRAL AND SOUTHEAST OHIO

CITY           SKY/WX    TMP DP  RH WIND       PRES   REMARKS
COLUMBUS       FAIR      79  57  46 SE14      30.10F
OSU AIRPORT    FAIR      82  59  45 S12       30.09F
BOLTON FIELD   SUNNY     81  61  50 S13G20    30.10F
RICKENBACK AFB NOT AVBL
NEWARK         CLOUDY    79  58  48 S7        30.11F
MARION         FAIR      82  57  42 S18       30.08F
LANCASTER      CLOUDY    76  59  55 SE7       30.12F
ZANESVILLE     CLOUDY    79  58  48 S6        30.13F
NEW PHILLY     FAIR      85  53  33 SW8       30.11F
$$




USA.gov is the U.S. government's official web portal to all federal, state and local government web resources and services.